When you browse on this site, cookies collect data to enhance your experience and personalize the content and advertising you see.
Visit our Privacy Policy to learn more. By continuing to use the site, you agree to this use of cookies and data.
  • In Hungary
  • List of Countries
  • For 7 days
  • Water Temperature
  • Weather Map
  • News
  • Weather Widgets
  • user-avatar
    Login

    Hourly Weather Spychowo

    Today, 6 December, Friday

    Time Temperature Precipitation Wind Pressure Humidity
    00:00 -2°C° 0 mm 5 mps 749 mmHg 74%
    01:00 -2°C° 0 mm 5 mps 749 mmHg 75%
    02:00 -4°C° 0 mm 5 mps 748 mmHg 75%
    03:00 -4°C° 0 mm 5 mps 748 mmHg 75%
    04:00 -4°C° 0 mm 6 mps 747 mmHg 75%
    05:00 -4°C° 0 mm 6 mps 747 mmHg 73%
    06:00 -4°C° 0 mm 6 mps 746 mmHg 71%
    07:00 -4°C° 0 mm 6 mps 746 mmHg 69%
    08:00 -3°C° 0 mm 7 mps 746 mmHg 65%
    09:00 -2°C° 0 mm 7 mps 745 mmHg 61%
    10:00 -2°C° 0 mm 7 mps 745 mmHg 57%
    11:00 -1°C° 0 mm 7 mps 745 mmHg 54%
    12:00 0°C° 0 mm 7 mps 745 mmHg 52%
    13:00 0°C° 0 mm 7 mps 745 mmHg 49%
    14:00 0°C° 0 mm 7 mps 745 mmHg 51%
    15:00 +1°C° 0 mm 6 mps 744 mmHg 53%
    16:00 -1°C° 0 mm 6 mps 744 mmHg 55%
    17:00 -1°C° 0 mm 6 mps 744 mmHg 55%
    18:00 -1°C° 0 mm 6 mps 744 mmHg 56%
    19:00 0°C° 0 mm 5 mps 744 mmHg 56%
    20:00 0°C° 0 mm 5 mps 744 mmHg 57%
    21:00 0°C° 0 mm 5 mps 743 mmHg 58%
    22:00 0°C° 0 mm 5 mps 743 mmHg 59%
    23:00 0°C° 0 mm 5 mps 743 mmHg 59%

    Tomorrow, 7 December, Saturday

    Time Temperature Precipitation Wind Pressure Humidity
    00:00 0°C° 0 mm 5 mps 743 mmHg 59%
    01:00 0°C° 0 mm 5 mps 742 mmHg 59%
    02:00 -1°C° 0 mm 6 mps 742 mmHg 60%
    03:00 -1°C° 0 mm 6 mps 741 mmHg 60%
    04:00 -1°C° 0 mm 6 mps 740 mmHg 60%
    05:00 -1°C° 0 mm 6 mps 740 mmHg 62%
    06:00 -1°C° 0 mm 6 mps 740 mmHg 63%
    07:00 -1°C° 0 mm 6 mps 740 mmHg 65%
    08:00 -1°C° 0.1 mm 6 mps 739 mmHg 70%
    09:00 +1°C° 0.1 mm 6 mps 739 mmHg 76%
    10:00 +1°C° 0.1 mm 6 mps 739 mmHg 81%
    11:00 +2°C° 0.2 mm 6 mps 739 mmHg 84%
    12:00 +2°C° 0.2 mm 6 mps 738 mmHg 88%
    13:00 +3°C° 0.2 mm 6 mps 738 mmHg 91%
    14:00 +3°C° 0.3 mm 6 mps 738 mmHg 91%
    15:00 +3°C° 0.3 mm 6 mps 738 mmHg 92%
    16:00 +3°C° 0.3 mm 5 mps 738 mmHg 92%
    17:00 +5°C° 0.4 mm 5 mps 738 mmHg 91%
    18:00 +5°C° 0.4 mm 5 mps 739 mmHg 90%
    19:00 +5°C° 0.4 mm 5 mps 739 mmHg 90%
    20:00 +5°C° 0.3 mm 5 mps 739 mmHg 89%
    21:00 +5°C° 0.3 mm 4 mps 739 mmHg 88%
    22:00 +4°C° 0.3 mm 4 mps 739 mmHg 88%
    23:00 +4°C° 0.1 mm 4 mps 740 mmHg 84%

    Day after tomorrow, 8 December, Sunday

    Time Temperature Precipitation Wind Pressure Humidity
    00:00 +2°C° 0.1 mm 5 mps 740 mmHg 81%
    01:00 +2°C° 0.1 mm 5 mps 740 mmHg 77%
    02:00 +1°C° 0 mm 5 mps 741 mmHg 79%
    03:00 +1°C° 0 mm 5 mps 741 mmHg 80%
    04:00 +1°C° 0 mm 6 mps 741 mmHg 82%
    05:00 0°C° 0 mm 5 mps 742 mmHg 84%
    06:00 0°C° 0 mm 5 mps 742 mmHg 87%
    07:00 0°C° 0 mm 4 mps 742 mmHg 89%
    08:00 +1°C° 0 mm 4 mps 742 mmHg 89%
    09:00 +1°C° 0 mm 4 mps 742 mmHg 88%
    10:00 +3°C° 0 mm 4 mps 742 mmHg 88%
    11:00 +3°C° 0 mm 4 mps 742 mmHg 88%
    12:00 +4°C° 0 mm 4 mps 741 mmHg 88%
    13:00 +3°C° 0 mm 5 mps 741 mmHg 89%
    14:00 +3°C° 0 mm 5 mps 740 mmHg 86%
    15:00 +3°C° 0 mm 6 mps 740 mmHg 84%
    16:00 +4°C° 0 mm 6 mps 739 mmHg 82%
    17:00 +4°C° 0 mm 6 mps 739 mmHg 80%
    18:00 +4°C° 0 mm 7 mps 738 mmHg 78%
    19:00 +4°C° 0 mm 7 mps 738 mmHg 77%
    20:00 +4°C° 0.1 mm 7 mps 737 mmHg 79%
    21:00 +4°C° 0.1 mm 7 mps 736 mmHg 80%
    22:00 +4°C° 0.1 mm 7 mps 736 mmHg 82%
    23:00 +4°C° 0.1 mm 7 mps 735 mmHg 84%

    9 December, Monday

    Time Temperature Precipitation Wind Pressure Humidity
    00:00 +4°C° 0.1 mm 6 mps 735 mmHg 86%
    01:00 +5°C° 0.1 mm 6 mps 735 mmHg 88%
    02:00 +5°C° 0.2 mm 6 mps 735 mmHg 87%
    03:00 +5°C° 0.2 mm 6 mps 735 mmHg 86%
    04:00 +5°C° 0.2 mm 6 mps 735 mmHg 86%
    05:00 +6°C° 0 mm 5 mps 735 mmHg 83%
    06:00 +5°C° 0 mm 5 mps 735 mmHg 81%
    07:00 +3°C° 0 mm 5 mps 735 mmHg 78%
    08:00 +5°C° 0 mm 5 mps 735 mmHg 78%
    09:00 +5°C° 0 mm 5 mps 735 mmHg 78%
    10:00 +5°C° 0 mm 5 mps 736 mmHg 78%
    11:00 +5°C° 0 mm 5 mps 736 mmHg 77%
    12:00 +5°C° 0 mm 5 mps 736 mmHg 75%
    13:00 +6°C° 0 mm 5 mps 736 mmHg 74%
    14:00 +5°C° 0 mm 4 mps 736 mmHg 75%
    15:00 +5°C° 0 mm 4 mps 736 mmHg 76%
    16:00 +4°C° 0 mm 3 mps 736 mmHg 77%
    17:00 +4°C° 0 mm 3 mps 736 mmHg 80%
    18:00 +3°C° 0 mm 3 mps 736 mmHg 84%
    19:00 +3°C° 0 mm 3 mps 736 mmHg 87%
    20:00 +3°C° 0 mm 3 mps 736 mmHg 86%
    21:00 +3°C° 0 mm 3 mps 736 mmHg 85%
    22:00 +3°C° 0 mm 3 mps 736 mmHg 83%
    23:00 +2°C° 0 mm 3 mps 736 mmHg 86%

    10 December, Tuesday

    Time Temperature Precipitation Wind Pressure Humidity
    00:00 +2°C° 0 mm 3 mps 736 mmHg 88%
    01:00 +3°C° 0 mm 2 mps 736 mmHg 90%
    02:00 +2°C° 0 mm 2 mps 736 mmHg 91%
    03:00 +2°C° 0 mm 2 mps 736 mmHg 91%
    04:00 +2°C° 0 mm 2 mps 736 mmHg 92%
    05:00 +2°C° 0 mm 2 mps 736 mmHg 92%
    06:00 +3°C° 0 mm 2 mps 736 mmHg 92%
    07:00 +3°C° 0 mm 2 mps 736 mmHg 92%
    08:00 +3°C° 0 mm 2 mps 737 mmHg 91%
    09:00 +3°C° 0 mm 2 mps 737 mmHg 90%
    10:00 +4°C° 0 mm 2 mps 737 mmHg 88%
    11:00 +3°C° 0 mm 3 mps 738 mmHg 86%
    12:00 +3°C° 0 mm 3 mps 738 mmHg 83%
    13:00 +4°C° 0 mm 4 mps 738 mmHg 81%
    14:00 +3°C° 0.3 mm 4 mps 739 mmHg 85%
    15:00 +1°C° 0.3 mm 5 mps 740 mmHg 90%
    16:00 -1°C° 0.3 mm 6 mps 741 mmHg 94%
    17:00 -1°C° 0.1 mm 6 mps 742 mmHg 85%
    18:00 -1°C° 0.1 mm 5 mps 743 mmHg 76%
    19:00 -1°C° 0.1 mm 5 mps 744 mmHg 67%
    20:00 -1°C° 0 mm 4 mps 745 mmHg 68%
    21:00 -2°C° 0 mm 4 mps 746 mmHg 69%
    22:00 -2°C° 0 mm 4 mps 747 mmHg 70%
    23:00 -2°C° 0 mm 4 mps 747 mmHg 69%

    11 December, Wednesday

    Time Temperature Precipitation Wind Pressure Humidity
    00:00 -2°C° 0 mm 4 mps 747 mmHg 68%
    01:00 -2°C° 0 mm 4 mps 748 mmHg 67%
    02:00 -2°C° 0 mm 3 mps 747 mmHg 68%
    03:00 -2°C° 0 mm 3 mps 747 mmHg 68%
    04:00 -2°C° 0 mm 3 mps 747 mmHg 69%
    05:00 -2°C° 0 mm 3 mps 747 mmHg 67%
    06:00 -3°C° 0 mm 4 mps 747 mmHg 64%
    07:00 -3°C° 0 mm 4 mps 746 mmHg 62%
    08:00 -4°C° 0 mm 5 mps 746 mmHg 60%
    09:00 -3°C° 0 mm 6 mps 745 mmHg 58%
    10:00 -3°C° 0 mm 6 mps 745 mmHg 56%
    11:00 -3°C° 0 mm 7 mps 744 mmHg 54%
    12:00 -2°C° 0 mm 7 mps 743 mmHg 53%
    13:00 -2°C° 0 mm 7 mps 743 mmHg 52%
    14:00 -2°C° 0 mm 7 mps 742 mmHg 57%
    15:00 -2°C° 0 mm 7 mps 742 mmHg 62%
    16:00 -2°C° 0 mm 7 mps 741 mmHg 66%
    17:00 -2°C° 0.3 mm 7 mps 741 mmHg 76%
    18:00 -2°C° 0.3 mm 6 mps 741 mmHg 86%
    19:00 -2°C° 0.3 mm 6 mps 740 mmHg 96%
    20:00 -2°C° 0.2 mm 6 mps 740 mmHg 96%
    21:00 0°C° 0.2 mm 5 mps 740 mmHg 95%
    22:00 +1°C° 0.2 mm 5 mps 740 mmHg 95%
    23:00 +1°C° 0.1 mm 5 mps 740 mmHg 95%
    Show more